Погода в Якоките

Россия / Республика Саха (Якутия)     58°53′47″N   125°50′12″E
темп.,
°C
ветер,
м/с
пор.,
м/с
влажн.,
%
обл.,
%
осадки,
мм/ч
давл.,
гПа
погр.,
м
27 февраля, сб
сб2700:00−26в118781 0.0 102819
03:00−27в118886 0.0 102519
06:00−27в1191100 0.0 102319
09:00−24св1197100 0.1 102173
12:00−18всв1194100 0.5 1020222
15:00−16ссв2394100 0.8 1016352
18:00−17сз2398100 0.6 1017135
21:00−20зсз4896100 1.3 1018725
28 февраля, вс
вс2800:00−22зсз51094100 0.4 1020871
03:00−24зсз51094100 0.6 1022915
06:00−24зсз41095100 0.2 10251151
09:00−24зсз61090100 0.4 10271095
12:00−23зсз61087100 0.1 10291235
15:00−24зсз61085100 0.3 10291315
18:00−25з4987100 0.1 10321086
21:00−27з31191100 0.1 1033657
1 марта, пн
пн100:00−29зюз3993100 0.0 1034301
03:00−31зюз2797100 0.0 1034161
06:00−32зюз249899 0.0 1034107
09:00−29зюз2796100 0.1 1034260
12:00−26з3690100 0.1 1033702
15:00−24з3684100 0.1 10311144
18:00−27з2291100 0.0 103136
21:00−30юз129198 0.1 103219
2 марта, вт
вт200:00−33юз129778 0.0 103119
03:00−35юз1110078 0.0 103119
06:00−36ююв1110095 0.0 103119
09:00−32юв119469 0.0 102929
12:00−24вюв12883 0.0 1026385
15:00−22всв228447 0.0 1023728
18:00−25св239498 0.1 102363
21:00−31юв119297 0.1 102519
3 марта, ср
ср300:00−34в118512 0.0 102419
03:00−36всв118832 0.0 102419
06:00−37всв119229 0.0 102319
09:00−34всв119241 0.0 102329
12:00−27св128752 0.0 1020365
15:00−23св138369 0.0 1019671
18:00−27с1293100 0.0 102019
21:00−30зсз119798 0.0 102219